Previsão horária em Abengourou

Hoje, 11 Abril, Domingo

Tempo Temperatura Precipitação Vento Pressão Humidade
00:00 +25°C° 1.1 mm 2 m/s 738 mmHg 95%
01:00 +25°C° 0 mm 1 m/s 738 mmHg 96%
02:00 +24°C° 0 mm 1 m/s 738 mmHg 97%
03:00 +24°C° 0 mm 1 m/s 738 mmHg 98%
04:00 +24°C° 0 mm 1 m/s 738 mmHg 98%
05:00 +24°C° 0 mm 1 m/s 738 mmHg 98%
06:00 +24°C° 0 mm 1 m/s 738 mmHg 99%
07:00 +26°C° 0 mm 1 m/s 739 mmHg 91%
08:00 +27°C° 0 mm 1 m/s 740 mmHg 84%
09:00 +29°C° 0 mm 2 m/s 740 mmHg 77%
10:00 +31°C° 0 mm 2 m/s 740 mmHg 67%
11:00 +34°C° 0 mm 2 m/s 740 mmHg 57%
12:00 +36°C° 0 mm 2 m/s 739 mmHg 47%
13:00 +37°C° 0 mm 2 m/s 739 mmHg 45%
14:00 +37°C° 0 mm 1 m/s 738 mmHg 42%
15:00 +37°C° 0 mm 1 m/s 737 mmHg 39%
16:00 +36°C° 0 mm 2 m/s 737 mmHg 47%
17:00 +34°C° 0 mm 2 m/s 737 mmHg 56%
18:00 +31°C° 0 mm 2 m/s 737 mmHg 64%
19:00 +30°C° 0.2 mm 2 m/s 738 mmHg 70%
20:00 +29°C° 0.2 mm 1 m/s 739 mmHg 77%
21:00 +27°C° 0.2 mm 1 m/s 740 mmHg 83%
22:00 +27°C° 0.3 mm 1 m/s 740 mmHg 85%
23:00 +26°C° 0.3 mm 1 m/s 740 mmHg 87%

Amanhã, 12 Abril, Segunda-feira

Tempo Temperatura Precipitação Vento Pressão Humidade
00:00 +26°C° 0.3 mm 1 m/s 741 mmHg 89%
01:00 +26°C° 0 mm 1 m/s 740 mmHg 89%
02:00 +26°C° 0 mm 1 m/s 740 mmHg 90%
03:00 +26°C° 0 mm 1 m/s 739 mmHg 90%
04:00 +26°C° 0 mm 1 m/s 740 mmHg 91%
05:00 +26°C° 0 mm 1 m/s 740 mmHg 92%
06:00 +23°C° 0 mm 0 m/s 741 mmHg 93%
07:00 +27°C° 0 mm 1 m/s 741 mmHg 84%
08:00 +29°C° 0 mm 2 m/s 741 mmHg 76%
09:00 +31°C° 0 mm 2 m/s 741 mmHg 67%
10:00 +32°C° 0 mm 2 m/s 741 mmHg 60%
11:00 +35°C° 0 mm 2 m/s 740 mmHg 53%
12:00 +37°C° 0 mm 2 m/s 740 mmHg 46%
13:00 +38°C° 0 mm 2 m/s 739 mmHg 44%
14:00 +38°C° 0 mm 2 m/s 739 mmHg 41%
15:00 +39°C° 0 mm 2 m/s 738 mmHg 38%
16:00 +37°C° 0 mm 2 m/s 738 mmHg 46%
17:00 +35°C° 0 mm 2 m/s 738 mmHg 54%
18:00 +33°C° 0 mm 3 m/s 738 mmHg 62%
19:00 +30°C° 1.4 mm 2 m/s 739 mmHg 72%
20:00 +28°C° 1.4 mm 2 m/s 740 mmHg 82%
21:00 +26°C° 1.4 mm 1 m/s 741 mmHg 92%
22:00 +25°C° 7.4 mm 1 m/s 741 mmHg 94%
23:00 +24°C° 7.4 mm 1 m/s 741 mmHg 95%

Depois de amanhã, 13 Abril, Terça-feira

Tempo Temperatura Precipitação Vento Pressão Humidade
00:00 +23°C° 7.4 mm 1 m/s 740 mmHg 97%
01:00 +23°C° 0 mm 1 m/s 740 mmHg 96%
02:00 +21°C° 0 mm 0 m/s 740 mmHg 96%
03:00 +22°C° 0 mm 0 m/s 740 mmHg 96%
04:00 +22°C° 0 mm 0 m/s 741 mmHg 96%
05:00 +24°C° 0 mm 1 m/s 741 mmHg 96%
06:00 +24°C° 0 mm 1 m/s 741 mmHg 97%
07:00 +25°C° 0 mm 1 m/s 741 mmHg 90%
08:00 +27°C° 0 mm 1 m/s 742 mmHg 83%
09:00 +29°C° 0 mm 2 m/s 743 mmHg 76%
10:00 +30°C° 0 mm 2 m/s 742 mmHg 69%
11:00 +32°C° 0 mm 2 m/s 742 mmHg 62%
12:00 +34°C° 0 mm 2 m/s 742 mmHg 56%
13:00 +35°C° 0 mm 2 m/s 741 mmHg 53%
14:00 +35°C° 0 mm 2 m/s 740 mmHg 50%
15:00 +36°C° 0 mm 2 m/s 739 mmHg 47%
16:00 +35°C° 0 mm 2 m/s 739 mmHg 54%
17:00 +32°C° 0 mm 2 m/s 740 mmHg 61%
18:00 +30°C° 0 mm 1 m/s 740 mmHg 68%
19:00 +29°C° 0 mm 2 m/s 740 mmHg 72%
20:00 +28°C° 0 mm 2 m/s 740 mmHg 76%
21:00 +28°C° 0 mm 2 m/s 741 mmHg 80%
22:00 +27°C° 0.1 mm 2 m/s 741 mmHg 84%
23:00 +26°C° 0.1 mm 1 m/s 741 mmHg 88%

14 Abril, Quarta-feira

Tempo Temperatura Precipitação Vento Pressão Humidade
00:00 +25°C° 0.1 mm 1 m/s 741 mmHg 93%
01:00 +25°C° 0 mm 1 m/s 741 mmHg 94%
02:00 +25°C° 0 mm 1 m/s 741 mmHg 96%
03:00 +23°C° 0 mm 0 m/s 741 mmHg 98%
04:00 +22°C° 0.7 mm 0 m/s 741 mmHg 98%
05:00 +22°C° 0.7 mm 0 m/s 741 mmHg 99%
06:00 +22°C° 0.7 mm 0 m/s 742 mmHg 99%
07:00 +26°C° 0.1 mm 1 m/s 742 mmHg 93%
08:00 +27°C° 0.1 mm 1 m/s 742 mmHg 86%
09:00 +29°C° 0.1 mm 2 m/s 742 mmHg 80%
10:00 +31°C° 0 mm 2 m/s 741 mmHg 69%
11:00 +34°C° 0 mm 2 m/s 741 mmHg 58%
12:00 +36°C° 0 mm 2 m/s 741 mmHg 47%
13:00 +37°C° 0 mm 2 m/s 740 mmHg 44%
14:00 +37°C° 0 mm 1 m/s 739 mmHg 41%
15:00 +37°C° 0 mm 1 m/s 738 mmHg 38%
16:00 +35°C° 0 mm 1 m/s 738 mmHg 48%
17:00 +34°C° 0 mm 2 m/s 738 mmHg 57%
18:00 +30°C° 0 mm 2 m/s 738 mmHg 67%
19:00 +29°C° 0 mm 2 m/s 739 mmHg 72%
20:00 +28°C° 0 mm 2 m/s 739 mmHg 77%
21:00 +27°C° 0 mm 1 m/s 740 mmHg 83%
22:00 +27°C° 0 mm 1 m/s 740 mmHg 86%
23:00 +26°C° 0 mm 1 m/s 740 mmHg 89%

15 Abril, Quinta-feira

Tempo Temperatura Precipitação Vento Pressão Humidade
00:00 +25°C° 0 mm 1 m/s 741 mmHg 93%
01:00 +25°C° 0 mm 1 m/s 741 mmHg 94%
02:00 +25°C° 0 mm 1 m/s 740 mmHg 96%
03:00 +25°C° 0 mm 1 m/s 740 mmHg 97%
04:00 +25°C° 0 mm 1 m/s 740 mmHg 98%
05:00 +24°C° 0 mm 1 m/s 740 mmHg 98%
06:00 +24°C° 0 mm 1 m/s 741 mmHg 99%
07:00 +26°C° 0 mm 1 m/s 741 mmHg 89%
08:00 +28°C° 0 mm 1 m/s 742 mmHg 78%
09:00 +30°C° 0 mm 2 m/s 742 mmHg 68%
10:00 +32°C° 0 mm 2 m/s 741 mmHg 61%
11:00 +34°C° 0 mm 2 m/s 741 mmHg 55%
12:00 +35°C° 0 mm 1 m/s 740 mmHg 48%
13:00 +35°C° 0 mm 2 m/s 740 mmHg 51%
14:00 +35°C° 0 mm 2 m/s 739 mmHg 54%
15:00 +34°C° 0 mm 2 m/s 738 mmHg 57%
16:00 +32°C° 0 mm 2 m/s 738 mmHg 61%
17:00 +31°C° 0 mm 2 m/s 738 mmHg 64%
18:00 +30°C° 0 mm 2 m/s 738 mmHg 68%
19:00 +29°C° 0 mm 2 m/s 739 mmHg 73%
20:00 +28°C° 0 mm 1 m/s 739 mmHg 78%
21:00 +27°C° 0 mm 1 m/s 739 mmHg 83%
22:00 +27°C° 0 mm 1 m/s 740 mmHg 86%
23:00 +26°C° 0 mm 1 m/s 740 mmHg 88%

16 Abril, Sexta-feira

Tempo Temperatura Precipitação Vento Pressão Humidade
00:00 +26°C° 0 mm 1 m/s 740 mmHg 91%
01:00 +25°C° 0 mm 1 m/s 740 mmHg 92%
02:00 +25°C° 0 mm 1 m/s 739 mmHg 94%
03:00 +25°C° 0 mm 1 m/s 739 mmHg 95%
04:00 +25°C° 0 mm 1 m/s 739 mmHg 96%
05:00 +24°C° 0 mm 1 m/s 739 mmHg 97%
06:00 +24°C° 0 mm 1 m/s 740 mmHg 98%
07:00 +26°C° 0 mm 1 m/s 740 mmHg 89%
08:00 +28°C° 0 mm 1 m/s 741 mmHg 80%
09:00 +30°C° 0 mm 2 m/s 741 mmHg 70%
10:00 +31°C° 0 mm 2 m/s 741 mmHg 64%
11:00 +34°C° 0 mm 2 m/s 740 mmHg 58%
12:00 +35°C° 0 mm 2 m/s 740 mmHg 52%
13:00 +35°C° 0 mm 2 m/s 739 mmHg 55%
14:00 +34°C° 0 mm 2 m/s 739 mmHg 58%
15:00 +32°C° 0 mm 2 m/s 738 mmHg 61%
16:00 +31°C° 0.1 mm 2 m/s 738 mmHg 64%
17:00 +31°C° 0.1 mm 2 m/s 738 mmHg 67%
18:00 +30°C° 0.1 mm 2 m/s 738 mmHg 70%
19:00 +29°C° 0 mm 2 m/s 738 mmHg 76%
20:00 +28°C° 0 mm 1 m/s 739 mmHg 82%
21:00 +25°C° 0 mm 0 m/s 740 mmHg 88%
22:00 +26°C° 0 mm 1 m/s 740 mmHg 89%
23:00 +26°C° 0 mm 1 m/s 740 mmHg 90%
Mostrar mais